NOAA 11 - Orbit

View from above orbital plane
View from above orbital plane
View from above satellite
View from above satellite

Ground track
Ground track

The orbit data is extracted from the following two-line orbital elements,

1 19531U 88089A   13139.24848882 -.00000000  00000-0  22128-4 0  3627
2 19531 098.7111 222.9624 0010640 349.6086 073.5468 14.15015172272036
Epoch (UTC): 19 May 2013 05:57:49
Eccentricity: 0.0010640
inclination: 98.7111°
perigee height: 834 km
apogee height: 850 km
right ascension of ascending node: 222.9624°
argument of perigee: 349.6086°
revolutions per day: 14.15015172
mean anomaly at epoch: 73.5468°
orbit number at epoch: 27203

The dashed part of the orbit path shows where the satellite is in the earth's shadow,  

Developed and maintained by Chris Peat, Heavens-Above GmbH. Please read the updated FAQ before sending e-mail. Imprint. DLR